User: anonymous   Login
Location: Rancho Del Sol Observatory
(38.7214°N, 120.6350°W)
Time: 16:19:15
(UTC-07:00)
Language:

Cosmos 2221 Rocket - Orbit

View from above orbital plane
View from above orbital plane
View from above satellite
View from above satellite

Ground track
Ground track

The orbit data is extracted from the following two-line orbital elements,

1 22237U 92080B   18109.62999933 +.00000118 +00000-0 +13132-4 0  9998
2 22237 082.5146 192.6532 0018190 284.5860 186.8099 14.78351385368625
Epoch (UTC): 19 April 2018 15:07:11
Eccentricity: 0.0018190
inclination: 82.5146°
perigee height: 622 km
apogee height: 647 km
right ascension of ascending node: 192.6532°
argument of perigee: 284.5860°
revolutions per day: 14.78351385
mean anomaly at epoch: 186.8099°
orbit number at epoch: 36862

The dashed part of the orbit path shows where the satellite is in the earth's shadow,  

DLR